sat.trackr.live / text

‹ back to catalog

STARLINK-34990

NORAD 65244 · 2025-179K

PAYLOAD ACTIVE UNKNOWN

§ Identity

Operator
Country
US
Launch date
2025-08-18
Launch site
AFWTR
Launch vehicle
Mass (kg)
RCS (m²)

Purposes: comms

External: N2YO · Heavens-Above · Gunter

§ Orbital elements

Epoch: 2026-05-25T01:53:28.118688Z

Period
95.64 min
Inclination
97.4518°
Eccentricity
0.0001019
Mean motion
15.05628412 rev/d
Perigee alt
548.9 km
Apogee alt
550.3 km
Semi-major
6,927.7 km
B*
-3.4899e-4
RAAN
187.9104°
Arg perigee
192.8280°
Mean anomaly
167.2921°
Rev number
4,337

§ Raw data

STARLINK-349901 65244U 25179K   26145.07879767 -.00005087  00000+0 -34899-3 0  99912 65244  97.4518 187.9104 0001019 192.8280 167.2921 15.05628412 43377

JSON: /api/v1/satellites/65244 · /tle

For live sub-satellite position, see the globe view (requires WebGL).

§ Visibility from observer

Set your observer location to see the next 7 days of passes ≥ 10°. The values pass through the URL so the page stays shareable.

No JS? Fill the form by hand. The geolocation button needs JavaScript.